User: anonymous   Login
Location: Unspecified
(0.0000°N, 0.0000°E)
Time: 21:52:31
(UTC+00:00)
Language:

STARLINK-34940 - Orbit

View from above orbital plane
View from above orbital plane
View from above satellite
View from above satellite

Ground track
Ground track

The orbit is defined by the following mean orbital elements,

1 65397U          26145.60412611 +.00000000 +00000-0 +14616-3 0 00003
2 65397  97.4488  16.9661 0002533  78.0152 282.1359 15.05654448    09
Epoch (UTC): 25 May 2026 14:29:56
Eccentricity: 0.0002533
inclination: 97.4488°
perigee height: 548 km
apogee height: 551 km
right ascension of ascending node: 16.9661°
argument of perigee: 78.0152°
revolutions per day: 15.05654448
mean anomaly at epoch: 282.1359°

The dashed part of the orbit path shows where the satellite is in the earth's shadow,  

DLR